Presure
227 220 85 100 92 171 178 179 183 174 171 175 180 181 180 181 152 94 77 86 142 210 84 78 92 174 97 99 193 189 191 102 105 172 172 176 143 169 167 149 180 202 208
189 176 189 150 195 95 167 175 119 132 165 168 171 172 154 160 182 111 112 212 115 87 105 167 100 99 101 192 187 189 180 144 173 173 180 175 146 166 163 178 193 205 206
184 180 160 130 154 168 150 95 95 112 139 169 171 110 176 89 87 121 141 155 149 146 100 151 193 193 191 189 188 174 172 173 171 174 179 156 165 157 185 181 167 207 270
215 177 166 173 196 199 174 215 180 99 189 166 104 91 85 93 97 98 95 93 101 176 104 191 192 192 191 181 176 171 172 173 176 175 144 167 161 159 175 201 191 170 264
67 195 185 163 88 187 193 180 173 188 107 89 77 108 98 97 100 96 176 107 183 180 188 184 173 181 181 174 171 172 176 178 176 162 167 165 151 176 202 194 250 272 249
186 193 193 196 207 202 200 176 173 173 177 181 201 176 178 178 174 98 167 173 176 175 170 169 171 175 166 172 173 174 175 173 163 157 172 160 175 202 191 208 277 249 259
222 189 197 197 188 201 207 207 200 183 74 146 177 181 190 176 173 172 172 168 171 172 163 169 170 181 176 172 165 164 157 142 170 172 147 178 201 187 284 257 253 263 214
235 224 175 179 176 170 199 194 203 201 196 197 191 184 180 197 181 171 172 171 170 177 169 171 177 177 150 163 172 157 160 175 175 130 184 197 195 260 265 240 237 212 203
248 219 170 172 174 173 174 209 204 191 149 179 182 184 181 180 182 190 177 171 176 169 172 172 173 158 165 171 167 165 177 182 181 186 188 192 254 255 229 225 220 215 206
243 242 188 200 179 177 180 180 184 203 182 170 190 186 182 177 193 176 172 171 172 179 174 176 145 154 168 163 170 173 153 191 195 193 190 258 240 218 211 205 203 194 197
239 231 241 242 221 188 152 157 170 185 164 169 155 189 182 171 157 169 177 187 185 183 147 169 158 163 163 167 166 181 196 184 189 174 237 219 206 198 201 197 200 196 206
227 235 231 247 135 208 186 137 167 190 188 170 180 168 182 182 171 175 177 138 171 152 162 160 178 165 180 175 187 193 184 188 213 216 216 207 213 190 204 208 171 214 176
226 230 216 233 239 235 227 190 139 178 142 188 177 181 137 145 177 180 179 172 163 163 156 172 167 183 184 190 195 183 171 187 226 210 207 203 208 215 186 199 160 222 165
205 200 206 177 139 175 177 218 186 153 176 158 140 179 176 186 172 164 165 159 174 170 189 185 184 186 190 193 187 179 203 216 211 210 207 203 205 192 191 215 210 201 201
366 231 228 214 210 142 208 227 140 148 189 186 196 195 179 171 141 164 183 184 185 183 173 184 185 191 190 185 169 217 205 198 205 206 198 169 191 180 133 127 150 165 216
356 240 174 219 215 221 225 225 224 182 182 182 172 204 182 177 184 149 185 177 177 190 192 192 190 193 161 223 203 132 195 151 194 173 201 203 125 119 195 184 197 226 173
324 204 211 192 229 229 186 169 211 198 185 201 211 150 159 179 181 184 184 192 194 191 202 207 158 214 199 188 208 140 202 163 158 207 207 208 157 195 155 174 191 164 223
312 258 253 226 176 175 173 171 167 168 189 187 191 187 183 186 186 189 192 196 218 228 219 200 185 201 160 199 155 200 208 197 204 175 145 177 178 191 160 146 180 167 215
257 281 302 318 330 169 170 176 189 187 189 190 183 184 183 183 191 176 204 221 189 196 196 195 201 190 184 191 208 206 200 169 172 160 186 184 147 215 203 193 178 153 131
198 195 157 196 197 199 198 195 186 190 190 190 198 210 213 221 221 197 189 189 188 203 145 198 176 193 154 175 199 155 195 157 196 180 174 152 236 188 226 243 232 231 239
201 207 203 194 192 188 183 182 180 213 201 203 186 175 201 199 171 185 184 193 197 187 193 186 178 197 182 162 189 146 167 192 197 166 222 219 217 188 212 175 202 242 240
183 190 179 177 190 183 188 195 192 198 166 196 193 185 187 201 211 211 210 205 199 174 165 192 204 195 184 187 163 189 193 173 195 183 193 219 221 227 237 232 243 237 241
200 175 182 187 190 180 180 170 193 193 178 176 180 180 174 195 191 184 204 194 205 205 157 148 165 171 158 179 178 170 141 189 228 200 239 232 236 229 240 257 238 236 235
190 180 194 168 138 153 150 166 186 201 184 173 162 152 175 166 162 177 154 188 176 204 204 159 173 164 199 184 195 145 200 230 243 233 240 240 235 245 152 191 246 249 238
155 171 181 177 180 169 176 176 164 201 203 185 188 181 197 182 200 196 155 177 193 199 177 194 216 217 212 213 217 221 234 249 256 249 239 238 250 251 254 257 250 246 250
194 194 204 192 152 166 199 193 193 194 160 201 192 190 183 182 191 176 182 178 180 190 187 184 203 210 227 225 238 257 252 243 251 237 239 247 243 253 251 253 250 244 245
Wind_Speed
61 68 28 38 32 57 56 54 53 53 52 51 49 48 48 47 38 26 29 34 44 54 42 39 39 53 53 55 52 51 50 65 67 56 59 61 57 61 62 61 69 75 75
72 66 59 55 71 35 56 57 41 44 51 52 51 51 44 44 48 38 40 49 44 43 47 52 52 55 57 52 52 50 49 59 56 58 61 60 63 62 63 69 73 76 72
72 70 59 49 45 60 52 40 39 40 44 55 54 37 52 34 38 43 45 46 48 51 54 54 54 54 54 53 51 52 55 58 60 62 61 60 63 60 70 71 66 75 48
83 67 63 66 68 65 59 67 63 44 59 54 42 40 39 46 47 47 47 49 55 52 62 52 54 55 54 52 54 58 60 62 63 64 58 64 63 62 69 75 71 59 47
9 74 74 63 20 64 66 62 58 61 45 42 35 52 51 52 55 49 50 55 51 52 52 52 55 54 54 56 60 62 63 65 67 64 66 65 59 70 75 70 56 47 46
73 75 78 75 77 74 73 62 58 57 58 58 64 55 55 55 53 53 56 54 55 54 57 58 58 58 63 62 63 65 66 67 67 63 73 64 72 76 70 64 47 40 41
93 77 78 78 70 74 72 70 69 61 33 54 59 58 58 55 55 56 58 61 60 59 62 62 62 62 62 65 65 66 63 59 72 74 64 74 77 73 56 51 44 40 48
100 96 70 70 66 61 66 65 71 70 64 65 59 57 56 60 59 60 61 63 63 62 65 64 65 64 54 66 69 66 69 75 77 60 76 78 78 59 51 52 46 47 48
98 86 70 68 65 63 61 73 71 63 54 57 58 58 57 58 59 62 64 67 65 68 67 68 67 64 70 71 73 74 79 78 79 79 78 80 61 54 53 51 51 50 53
94 93 71 81 67 64 62 63 62 68 59 55 59 60 60 59 62 64 67 68 70 70 70 71 58 63 73 74 76 78 66 81 82 83 82 57 57 57 57 58 57 60 61
89 86 91 93 85 66 51 60 60 60 59 57 56 63 59 63 65 69 69 69 71 72 62 70 68 75 77 78 78 82 84 83 85 78 61 61 64 68 66 66 61 61 61
79 85 83 88 48 74 65 53 51 56 59 56 60 60 63 64 70 71 72 60 74 62 72 71 78 81 82 83 85 86 86 87 76 73 69 71 68 74 70 69 57 62 57
74 76 70 75 80 81 79 62 58 59 62 63 62 65 54 58 72 71 74 75 74 74 69 80 82 84 84 87 87 88 82 87 72 78 77 78 74 74 75 74 52 71 60
66 66 66 58 49 58 59 74 57 65 68 57 55 70 73 72 78 71 75 73 80 75 83 85 86 87 88 88 91 90 85 78 79 80 78 81 81 71 76 79 79 79 76
63 67 67 60 64 61 69 74 59 69 63 66 67 69 74 78 64 72 82 82 82 84 85 87 88 87 91 88 86 78 82 88 85 82 88 70 85 79 61 61 70 41 85
52 66 57 57 56 63 66 67 68 57 62 67 78 74 81 83 80 70 81 84 86 86 88 89 91 92 79 78 85 54 84 71 91 81 91 91 60 52 89 66 83 92 58
38 50 57 51 63 62 67 62 60 65 73 72 71 67 71 84 82 81 83 84 85 87 87 88 72 78 87 97 88 61 92 75 65 93 92 93 75 88 60 65 90 77 95
30 41 48 52 49 50 52 58 63 66 73 75 76 79 80 77 80 82 82 85 81 76 78 85 98 90 73 90 74 92 94 95 97 73 70 63 72 93 74 72 91 79 103
13 21 25 49 50 68 68 67 68 71 71 74 79 79 81 81 82 90 82 79 78 85 88 90 89 86 92 98 98 98 100 65 69 68 98 84 74 108 104 104 74 65 55
41 49 60 50 51 53 56 61 71 70 74 75 72 73 77 76 79 76 87 90 93 89 66 93 81 99 59 96 104 51 103 57 106 88 76 72 107 94 113 103 109 96 103
37 39 47 58 58 65 69 75 79 66 63 65 74 81 77 80 77 91 94 90 92 96 96 87 77 101 85 62 107 68 64 111 113 71 114 118 118 95 109 88 102 107 108
65 52 60 64 60 69 64 60 63 69 70 69 72 82 82 81 86 89 92 94 98 86 73 96 105 106 110 111 69 104 115 85 116 92 108 111 120 118 114 116 108 110 107
58 76 56 61 67 79 79 87 70 73 90 85 86 88 94 84 87 87 94 92 100 102 63 72 70 95 63 110 107 77 79 86 121 122 117 116 118 123 117 114 115 116 115
67 77 70 86 54 62 62 91 82 82 86 94 85 70 104 95 78 105 66 102 107 108 105 68 105 76 119 117 104 82 119 123 118 123 117 116 121 118 85 102 117 115 117
80 80 81 84 82 81 87 94 95 89 92 97 98 98 101 95 102 105 69 103 110 114 89 112 124 127 128 129 129 129 123 118 115 115 117 119 118 118 119 118 116 119 121
81 83 86 80 79 92 90 91 94 97 86 101 103 107 102 107 111 115 116 110 111 122 121 122 125 127 130 127 131 119 118 118 118 118 119 118 120 120 120 120 122 121 121
Wind_Direction
225 230 257 252 256 241 242 244 245 246 249 253 257 259 261 263 267 270 277 267 276 278 275 288 288 283 280 281 291 292 295 290 292 293 294 295 286 301 306 294 308 311 313
232 235 232 239 237 257 242 242 250 252 251 255 257 259 263 266 267 266 269 273 272 279 279 281 283 279 281 288 288 292 293 289 290 292 294 299 292 305 302 307 311 312 313
231 233 240 247 236 243 246 256 256 254 253 253 255 262 260 266 264 268 277 277 282 283 283 282 283 284 284 287 291 288 288 289 292 293 298 296 302 301 307 309 306 312 319
229 234 239 240 239 237 244 240 246 253 250 253 270 271 266 273 276 281 279 278 281 280 280 282 283 285 287 288 288 288 290 291 292 295 287 300 303 300 308 311 310 307 317
266 234 235 242 257 241 242 244 247 248 263 270 276 265 269 272 273 271 270 276 277 277 282 282 280 285 288 286 286 288 291 293 294 296 299 302 295 306 310 310 315 320 315
230 232 236 238 239 241 243 247 250 251 251 252 252 256 259 262 264 270 268 271 273 275 275 278 281 284 282 285 287 288 290 294 295 297 300 296 304 309 308 309 316 318 323
227 231 234 236 238 240 243 244 248 249 285 259 256 257 259 262 265 267 268 269 272 273 275 277 280 285 284 285 289 291 292 281 296 298 300 303 308 308 314 312 316 321 309
225 227 236 235 236 241 242 244 247 249 251 254 259 261 262 264 266 267 269 270 272 276 276 278 281 284 287 290 289 293 293 294 296 295 302 305 307 308 310 310 309 305 308
225 229 240 241 239 241 241 243 245 249 252 255 258 259 261 263 267 269 268 270 273 274 276 279 281 288 286 288 289 291 292 295 297 301 302 305 307 307 307 308 305 305 305
224 225 231 235 239 241 241 245 245 249 253 257 259 259 262 264 269 266 267 270 272 276 278 279 280 289 287 289 291 292 290 297 299 301 302 305 307 307 305 305 305 308 307
225 225 226 228 233 238 253 245 250 250 252 261 265 260 263 261 262 265 269 274 275 277 276 280 287 287 287 290 291 292 296 297 299 299 304 304 302 303 304 303 303 303 302
226 227 228 229 250 238 241 262 250 250 251 256 258 258 263 264 262 266 269 274 273 276 280 283 283 285 287 288 292 294 296 297 300 300 300 301 299 303 299 299 302 304 299
225 228 234 233 233 235 240 245 257 250 260 255 258 260 268 269 265 270 270 270 275 278 283 281 284 286 290 291 293 293 294 297 298 296 296 298 300 301 302 302 292 305 289
223 229 234 245 253 246 247 246 249 256 259 262 269 260 262 264 264 270 272 275 275 280 282 283 286 288 289 290 290 291 295 296 296 298 298 297 300 303 301 302 302 301 301
220 229 231 237 242 254 246 246 264 257 261 263 262 263 260 263 275 272 269 273 277 279 281 283 285 286 287 289 291 295 293 293 298 299 296 302 296 296 287 292 292 293 302
220 227 248 241 244 247 249 251 253 248 249 249 254 261 257 262 264 277 271 274 277 280 281 283 285 286 289 293 291 283 294 289 296 302 297 297 287 289 301 299 300 301 302
224 253 241 227 242 244 252 264 257 251 250 253 258 273 271 262 267 270 273 276 278 280 282 287 282 289 287 288 292 283 292 291 285 295 297 297 291 299 288 301 299 287 299
224 233 236 241 254 253 253 252 253 256 248 251 256 260 263 267 269 272 275 277 282 284 285 280 281 286 283 288 282 291 293 293 294 290 284 298 294 299 291 279 297 297 299
239 237 236 241 241 248 250 248 248 250 254 257 257 261 264 267 271 272 277 280 279 278 280 281 285 286 284 285 290 289 290 294 285 281 297 292 286 296 294 297 297 292 288
229 228 264 236 241 244 247 249 249 253 256 259 265 271 273 273 274 278 271 273 274 280 284 281 287 282 289 295 288 285 289 294 293 301 306 273 297 301 296 294 296 293 293
237 243 239 238 237 242 248 249 252 259 263 267 270 273 269 270 271 268 271 276 277 278 279 285 286 281 285 299 288 275 302 292 292 295 293 293 294 292 293 293 294 292 291
242 247 251 262 249 251 252 260 264 261 265 268 267 266 268 274 276 276 276 276 278 283 279 285 282 283 288 287 289 293 290 300 292 296 291 294 293 293 291 292 288 289 290
276 243 270 260 255 249 249 262 265 263 259 262 263 264 269 274 279 281 276 281 280 281 292 274 296 297 286 291 292 298 283 293 291 293 290 289 288 290 290 289 287 289 290
259 268 267 259 262 275 273 272 271 269 266 270 280 287 271 282 283 275 282 278 283 282 285 294 294 288 284 288 287 278 288 289 288 289 286 286 287 287 288 294 288 289 291
277 271 272 272 272 274 270 271 275 274 274 274 274 278 273 282 276 277 293 286 278 280 286 288 284 283 284 285 286 287 287 286 285 283 284 285 287 287 288 288 289 290 291
267 269 268 269 279 275 269 269 270 272 281 272 273 274 278 278 275 279 279 286 288 282 284 286 284 285 285 285 286 284 283 283 283 284 285 285 287 287 289 291 292 291 294